Odiham, United Kingdom

6:09 AM GMT on December 16, 2017 (GMT +0000)
Odiham Air Base

Weather History for EGVO - March, 2013

Change the Weather History Date:

Thursday, March 28, 2013

  Actual Average Record
Temperature  
Mean Temperature 34 °F -  
Max Temperature 39 °F - - ()
Min Temperature 30 °F - - ()
Degree Days  
Heating Degree Days 30    
Moisture  
Dew Point 24 °F    
Average Humidity 64    
Maximum Humidity 86    
Minimum Humidity 41    
Precipitation  
Precipitation 0.00 in - - ()
Sea Level Pressure  
Sea Level Pressure 29.88 in    
Wind  
Wind Speed 7 mph ()    
Max Wind Speed 13 mph    
Max Gust Speed -    
Visibility 6.3 miles    
Events      
T = Trace of Precipitation, MM = Missing Value Source: Averaged Metar Reports

Daily Weather History Graph

Daily Weather History Graph

Search for Another Location

Airport or City:

Trip Planner

Search our weather history database for the weather conditions in past years. The results will help you decide how hot, cold, wet, or windy it might be!

Date:

Astronomy

Mar. 28, 2013 Rise Set
Actual Time 5:48 AM GMT 6:30 PM GMT
Civil Twilight 5:14 AM GMT 7:03 PM GMT
Nautical Twilight 4:34 AM GMT 7:44 PM GMT
Astronomical Twilight 3:52 AM GMT 8:26 PM GMT
Moon 8:21 PM GMT (3/28) 5:55 AM GMT (3/28)
Length of Visible Light 13h 49m
Length of Day
12h 42m
Full, 98% of the Moon is Illuminated
Mar 28
Full
Apr 3
Last Quarter
Apr 10
New
Apr 18
First Quarter
Apr 25
Full

Hourly Weather History & Observations

Time (GMT) Temp. Windchill Dew Point Humidity Pressure Visibility Wind Dir Wind Speed Gust Speed Precip Events Conditions
12:50 AM 30.2 °F 23.4 °F 23.0 °F 75% 29.86 in 6.2 mi North 6.9 mph - N/A   Mostly Cloudy
1:50 AM 30.2 °F 23.4 °F 23.0 °F 75% 29.83 in 6.2 mi North 6.9 mph - N/A   Overcast
2:50 AM 31 °F - 26 °F 72% 29.87 in 6 mi North 5.8 mph - -   Overcast
2:50 AM 32.0 °F 26.4 °F 24.8 °F 75% 29.83 in 6.2 mi North 5.8 mph - N/A   Overcast
3:50 AM 32.0 °F 26.4 °F 26.6 °F 80% 29.83 in 6.2 mi North 5.8 mph - N/A   Overcast
4:50 AM 30.2 °F 22.6 °F 26.6 °F 86% 29.83 in 5.6 mi North 8.1 mph - N/A   Haze
5:50 AM 30 °F - 26 °F 78% 29.87 in 5 mi North 8.1 mph - -   Haze
5:50 AM 30.2 °F 22.6 °F 26.6 °F 86% 29.83 in 5.0 mi North 8.1 mph - N/A   Haze
6:50 AM 30.2 °F 23.4 °F 26.6 °F 86% 29.83 in 3.7 mi North 6.9 mph - N/A   Haze
7:50 AM 32.0 °F 25.6 °F 26.6 °F 80% 29.83 in 4.3 mi North 6.9 mph - N/A   Haze
8:50 AM 35 °F - 27 °F 63% 29.88 in 6 mi NNE 8.1 mph - -   Haze
8:50 AM 33.8 °F 27.0 °F 26.6 °F 75% 29.86 in 5.6 mi NNE 8.1 mph - N/A   Haze
9:50 AM 37.4 °F 30.8 °F 28.4 °F 70% 29.86 in 6.2 mi North 9.2 mph - N/A   Scattered Clouds
10:50 AM 37.4 °F 29.3 °F 24.8 °F 60% 29.86 in 6.2 mi NE 12.7 mph - N/A   Scattered Clouds
11:50 AM 38 °F - 24 °F 44% 29.89 in 7 mi NE 9.2 mph - -   Overcast
11:50 AM 37.4 °F 30.8 °F 24.8 °F 60% 29.86 in 6.2 mi NE 9.2 mph - N/A   Mostly Cloudy
12:50 PM 37.4 °F 30.8 °F 26.6 °F 65% 29.86 in 6.2 mi NE 9.2 mph - N/A   Overcast
1:50 PM 35.6 °F 29.2 °F 26.6 °F 70% 29.86 in 6.2 mi NE 8.1 mph - N/A   Mostly Cloudy
2:50 PM 37 °F - 24 °F 48% 29.90 in 7 mi NNE 11.5 mph - -   Overcast
2:50 PM 37.4 °F 29.8 °F 24.8 °F 60% 29.86 in 6.2 mi NNE 11.5 mph - N/A   Mostly Cloudy
3:50 PM 37.4 °F 29.8 °F 21.2 °F 52% 29.89 in 6.2 mi NNE 11.5 mph - N/A   Mostly Cloudy
4:50 PM 37.4 °F 30.8 °F 23.0 °F 56% 29.89 in 6.2 mi NNE 9.2 mph - N/A   Mostly Cloudy
5:50 PM 36 °F - 21 °F 41% 29.93 in 9 mi NNE 9.2 mph - -   Mostly Cloudy
5:50 PM 37.4 °F 30.8 °F 21.2 °F 52% 29.89 in 6.2 mi NNE 9.2 mph - N/A   Mostly Cloudy
6:50 PM 35.6 °F 30.7 °F 23.0 °F 60% 29.92 in 6.2 mi North 5.8 mph - N/A   Mostly Cloudy
7:50 PM 35.6 °F 30.7 °F 23.0 °F 60% 29.92 in 6.2 mi NNW 5.8 mph - N/A   Mostly Cloudy
8:50 PM 35 °F - 21 °F 43% 29.95 in 9 mi NNE 8.1 mph - -   Mostly Cloudy
8:50 PM 35.6 °F 29.2 °F 21.2 °F 56% 29.92 in 6.2 mi NNE 8.1 mph - N/A   Mostly Cloudy
9:50 PM 33.8 °F 27.7 °F 21.2 °F 60% 29.92 in 6.2 mi NNE 6.9 mph - N/A   Mostly Cloudy
10:50 PM 33.8 °F 27.7 °F 21.2 °F 60% 29.92 in 6.2 mi NE 6.9 mph - N/A   Mostly Cloudy
11:50 PM 33 °F - 19 °F 44% 29.94 in 11 mi NNE 10.4 mph - -   Overcast
11:50 PM 33.8 °F 25.8 °F 19.4 °F 56% 29.89 in 6.2 mi NNE 10.4 mph - N/A   Overcast